START_TIME,STEP,MOV.,M29,t_acc.,H22,t_acc.,H26,t_acc.,H30,t_acc.
1979-07-13 12:00:32.230 ,0,0,0.,24.0,0.,24.0,0.,24.0,0.,24.0
1979-07-13 12:00:56.230 ,1,1,0.,24.0,0.,24.0,0.,24.0,0.,24.0
1979-07-13 12:01:20.230 ,1,0,0.,24.0,0.,24.0,0.,24.0,0.,24.0
1979-07-13 12:01:44.230 ,2,1,0.,24.0,0.,24.0,0.,24.0,0.,24.0
1979-07-13 12:02:08.230 ,2,0,0.,24.0,0.,24.0,0.,24.0,0.,24.0
1979-07-13 12:02:32.230 ,3,1,0.,24.0,0.,24.0,0.,24.0,0.,24.0
1979-07-13 12:02:56.230 ,3,0,0.,24.0,0.,24.0,0.,24.0,0.,24.0
1979-07-13 12:03:20.230 ,4,1,0.,24.0,0.,24.0,0.,24.0,0.,24.0
1979-07-13 12:03:44.230 ,4,0,0.,24.0,0.,24.0,0.,24.0,0.,24.0
1979-07-13 12:04:08.230 ,5,1,0.,24.0,0.,24.0,0.,24.0,0.,24.0
1979-07-13 12:04:32.230 ,5,0,0.,24.0,0.,24.0,0.,24.0,0.,24.0
1979-07-13 12:04:56.230 ,6,1,0.,24.0,0.,24.0,0.,24.0,0.,24.0
1979-07-13 12:05:20.230 ,6,0,0.,24.0,0.,24.0,0.,24.0,0.,24.0
1979-07-13 12:05:44.230 ,7,1,0.,24.0,0.,24.0,0.,24.0,0.,24.0
1979-07-13 12:06:08.230 ,7,0,0.,24.0,0.,24.0,0.,24.0,0.,24.0
1979-07-13 12:06:32.230 ,7,1,0.,24.0,0.,24.0,0.,24.0,0.,24.0
1979-07-13 12:06:56.230 ,7,0,0.,24.0,0.,24.0,0.,24.0,0.,24.0
1979-07-13 12:07:20.230 ,6,1,0.,24.0,0.,24.0,0.,24.0,0.,24.0
1979-07-13 12:07:44.230 ,6,0,0.,24.0,0.,24.0,0.,24.0,0.,24.0
1979-07-13 12:08:08.230 ,5,1,0.,24.0,0.,24.0,0.,24.0,0.,24.0
1979-07-13 12:08:32.230 ,5,0,0.,24.0,0.,24.0,0.,24.0,0.,24.0
1979-07-13 12:08:56.230 ,4,1,0.,24.0,0.,24.0,0.,24.0,0.,24.0
1979-07-13 12:09:20.230 ,4,0,0.,24.0,0.,24.0,0.,24.0,0.,24.0
1979-07-13 12:09:44.230 ,3,1,0.,24.0,0.,24.0,0.,24.0,0.,24.0
1979-07-13 12:10:08.230 ,3,0,0.,24.0,0.,24.0,0.,24.0,0.,24.0
1979-07-13 12:10:34.030 ,2,1,0.,24.0,0.,24.0,0.,24.0,0.,24.0
1979-07-13 12:10:56.230 ,2,0,0.,24.0,0.,24.0,0.,24.0,0.,24.0
1979-07-13 12:11:20.230 ,1,1,0.,24.0,0.,24.0,0.,24.0,0.,24.0
1979-07-13 12:11:44.230 ,1,0,0.,24.0,0.,24.0,0.,24.0,0.,24.0
1979-07-13 12:12:08.230 ,0,1,0.,24.0,0.,24.0,0.,24.0,0.,24.0
1979-07-13 12:12:32.230 ,0,0,0.,24.0,0.,24.0,0.,24.0,0.,24.0
1979-07-13 12:12:56.230 ,0,1,0.,24.0,0.,24.0,0.,24.0,0.,24.0
1979-07-13 12:13:20.230 ,0,0,0.,24.0,0.,24.0,0.,24.0,0.,24.0
1979-07-13 12:13:44.230 ,1,1,0.,24.0,0.,24.0,0.,24.0,0.,24.0
1979-07-13 12:14:08.230 ,1,0,0.,24.0,0.,24.0,0.,24.0,0.,24.0
1979-07-13 12:14:32.230 ,2,1,0.,24.0,0.,24.0,0.,24.0,0.,24.0
1979-07-13 12:14:56.230 ,0,0,0.,24.0,0.,24.0,0.,24.0,0.,24.0
1979-07-13 12:15:20.230 ,3,1,0.,24.0,0.,24.0,0.,24.0,0.,24.0
1979-07-13 12:15:44.230 ,3,0,0.,24.0,0.,24.0,0.,24.0,0.,24.0
1979-07-13 12:16:08.230 ,4,1,0.,24.0,0.,24.0,0.,24.0,0.,24.0
1979-07-13 12:16:32.230 ,4,0,0.,24.0,0.,24.0,0.,24.0,0.,24.0
1979-07-13 12:16:56.230 ,5,1,0.,24.0,0.,24.0,0.,24.0,0.,24.0
1979-07-13 12:17:20.230 ,5,0,0.,24.0,0.,24.0,0.,24.0,0.,24.0
1979-07-13 12:17:44.230 ,6,1,0.,24.0,0.,24.0,0.,24.0,0.,24.0
1979-07-13 12:18:08.230 ,6,0,0.,24.0,0.,24.0,0.,24.0,0.,24.0
1979-07-13 12:18:32.230 ,7,0,0.,24.0,0.,24.0,0.,24.0,0.,24.0
1979-07-13 12:18:56.230 ,7,0,0.,24.0,0.,24.0,0.,24.0,0.,24.0
1979-07-13 12:19:20.230 ,5,1,0.,24.0,0.,24.0,0.,24.0,0.,24.0
1979-07-13 12:19:44.230 ,1,1,0.,24.0,0.,24.0,0.,24.0,0.,24.0
1979-07-13 12:20:08.230 ,2,1,0.,24.0,0.,24.0,0.,24.0,0.,24.0
1979-07-13 12:20:32.230 ,6,1,0.,24.0,0.,24.0,0.,24.0,0.,24.0
1979-07-13 12:20:56.230 ,5,1,0.,24.0,0.,24.0,0.,24.0,0.,24.0
1979-07-13 12:21:20.230 ,1,1,0.,24.0,0.,24.0,0.,24.0,0.,24.0
1979-07-13 12:21:44.230 ,2,1,0.,24.0,0.,24.0,0.,24.0,0.,24.0
1979-07-13 12:22:08.230 ,6,1,0.,24.0,0.,24.0,0.,24.0,0.,24.0
1979-07-13 12:22:32.230 ,5,1,0.,24.0,0.,24.0,0.,24.0,0.,24.0
1979-07-13 12:22:56.230 ,1,1,0.,24.0,0.,24.0,0.,24.0,0.,24.0
1979-07-13 12:23:20.230 ,2,1,0.,24.0,0.,24.0,0.,24.0,0.,24.0
1979-07-13 12:23:44.230 ,6,1,0.,24.0,0.,24.0,0.,24.0,0.,24.0
1979-07-13 12:24:08.230 ,5,1,0.,24.0,0.,24.0,0.,24.0,0.,24.0
1979-07-13 12:24:32.230 ,1,1,0.,24.0,0.,24.0,0.,24.0,0.,24.0
1979-07-13 12:24:56.230 ,2,1,0.,24.0,0.,24.0,0.,24.0,0.,24.0
1979-07-13 12:25:20.230 ,6,1,0.,24.0,0.,24.0,0.,24.0,0.,24.0
1979-07-13 12:25:44.230 ,5,1,0.,24.0,0.,24.0,0.,24.0,0.,24.0
1979-07-13 12:26:08.230 ,1,1,0.,24.0,0.,24.0,0.,24.0,0.,24.0
1979-07-13 12:26:32.230 ,2,1,0.,24.0,0.,24.0,0.,24.0,0.,24.0
1979-07-13 12:26:56.230 ,6,1,0.,24.0,0.,24.0,0.,24.0,0.,24.0
1979-07-13 12:27:20.230 ,5,1,0.,24.0,0.,24.0,0.,24.0,0.,24.0
1979-07-13 12:27:44.230 ,1,1,0.,24.0,0.,24.0,0.,24.0,0.,24.0
1979-07-13 12:28:08.230 ,2,1,0.,24.0,0.,24.0,0.,24.0,0.,24.0
1979-07-13 12:28:32.230 ,6,1,0.,24.0,0.,24.0,0.,24.0,0.,24.0
1979-07-13 12:28:56.230 ,5,1,0.,24.0,0.,24.0,0.,24.0,0.,24.0
1979-07-13 12:29:20.230 ,1,1,0.,24.0,0.,24.0,0.,24.0,0.,24.0
1979-07-13 12:29:44.230 ,0,0,0.,24.0,0.,24.0,0.,24.0,0.,24.0
1979-07-13 12:30:08.230 ,0,0,0.,24.0,0.,24.0,0.,24.0,0.,24.0
1979-07-13 12:30:32.230 ,5,1,0.,24.0,0.,24.0,0.,24.0,0.,24.0
1979-07-13 12:30:56.230 ,5,0,0.,24.0,0.,24.0,0.,24.0,0.,24.0
1979-07-13 12:31:20.230 ,4,1,0.,24.0,0.,24.0,0.,24.0,0.,24.0
1979-07-13 12:31:44.230 ,4,0,0.,24.0,0.,24.0,0.,24.0,0.,24.0
1979-07-13 12:32:08.230 ,3,1,0.,24.0,0.,24.0,0.,24.0,0.,24.0
1979-07-13 12:32:32.230 ,3,0,0.,24.0,0.,24.0,0.,24.0,0.,24.0
1979-07-13 12:32:56.230 ,2,1,0.,24.0,0.,24.0,0.,24.0,0.,24.0
1979-07-13 12:33:20.230 ,2,0,0.,24.0,0.,24.0,0.,24.0,0.,24.0
1979-07-13 12:33:44.230 ,1,1,0.,24.0,0.,24.0,0.,24.0,0.,24.0
1979-07-13 12:34:08.230 ,1,0,0.,24.0,0.,24.0,0.,24.0,0.,24.0
1979-07-13 12:34:32.230 ,0,1,0.,24.0,0.,24.0,0.,24.0,0.,24.0
1979-07-13 12:34:56.230 ,0,0,0.,24.0,0.,24.0,0.,24.0,0.,24.0
1979-07-13 12:35:20.230 ,0,1,0.,24.0,0.,24.0,0.,24.0,0.,24.0
1979-07-13 12:35:44.230 ,0,0,0.,24.0,0.,24.0,0.,24.0,0.,24.0
1979-07-13 12:36:08.230 ,1,1,0.,24.0,0.,24.0,0.,24.0,0.,24.0
1979-07-13 12:36:32.230 ,1,0,0.,24.0,0.,24.0,0.,24.0,0.,24.0
1979-07-13 12:36:56.230 ,2,1,0.,24.0,0.,24.0,0.,24.0,0.,24.0
1979-07-13 12:37:20.230 ,2,0,0.,24.0,0.,24.0,0.,24.0,0.,24.0
1979-07-13 12:37:44.230 ,3,1,0.,24.0,0.,24.0,0.,24.0,0.,24.0
1979-07-13 12:38:08.230 ,3,0,0.,24.0,0.,24.0,0.,24.0,0.,24.0
1979-07-13 12:38:32.230 ,4,1,0.,24.0,0.,24.0,0.,24.0,0.,24.0
1979-07-13 12:38:56.230 ,4,0,0.,24.0,0.,24.0,0.,24.0,0.,24.0
1979-07-13 12:39:20.230 ,5,1,0.,24.0,0.,24.0,0.,24.0,0.,24.0
1979-07-13 12:39:44.230 ,0,0,0.,24.0,0.,24.0,0.,24.0,0.,24.0
1979-07-13 12:40:26.830 ,0,0,,0,,0,,0,,0
1979-07-13 12:40:32.230 ,0,0,0.,24.0,0.,24.0,0.,24.0,0.,24.0
1979-07-13 12:40:56.230 ,7,1,0.,24.0,0.,24.0,0.,24.0,0.,24.0
1979-07-13 12:41:20.230 ,7,0,0.,24.0,0.,24.0,0.,24.0,0.,24.0
1979-07-13 12:41:44.230 ,7,1,0.,24.0,0.,24.0,0.,24.0,0.,24.0
1979-07-13 12:42:08.230 ,7,0,0.,24.0,0.,24.0,0.,24.0,0.,24.0
1979-07-13 12:42:32.230 ,6,1,0.,24.0,0.,24.0,0.,24.0,0.,24.0
1979-07-13 12:42:56.230 ,6,0,0.,24.0,0.,24.0,0.,24.0,0.,24.0
1979-07-13 12:43:20.230 ,5,1,0.,24.0,0.,24.0,0.,24.0,0.,24.0
1979-07-13 12:43:44.230 ,5,0,0.,24.0,0.,24.0,0.,24.0,0.,24.0
1979-07-13 12:44:08.230 ,4,1,0.,24.0,0.,24.0,0.,24.0,0.,24.0
1979-07-13 12:44:32.230 ,4,0,0.,24.0,0.,24.0,0.,24.0,0.,24.0
1979-07-13 12:44:56.230 ,3,1,0.,24.0,0.,24.0,0.,24.0,0.,24.0
1979-07-13 12:45:20.230 ,3,0,0.,24.0,0.,24.0,0.,24.0,0.,24.0
1979-07-13 12:45:44.230 ,2,1,0.,24.0,0.,24.0,0.,24.0,0.,24.0
1979-07-13 12:46:08.230 ,2,0,0.,24.0,0.,24.0,0.,24.0,0.,24.0
1979-07-13 12:46:32.230 ,1,1,0.,24.0,0.,24.0,0.,24.0,0.,24.0
1979-07-13 12:46:56.230 ,1,0,0.,24.0,0.,24.0,0.,24.0,0.,24.0
1979-07-13 12:47:20.230 ,0,1,0.,24.0,0.,24.0,0.,24.0,0.,24.0
1979-07-13 12:47:44.230 ,0,0,0.,24.0,0.,24.0,0.,24.0,0.,24.0
1979-07-13 12:48:08.230 ,0,1,0.,24.0,0.,24.0,0.,24.0,0.,24.0
1979-07-13 12:48:32.230 ,0,0,0.,24.0,0.,24.0,0.,24.0,0.,24.0
1979-07-13 12:48:56.230 ,1,1,0.,24.0,0.,24.0,0.,24.0,0.,24.0
1979-07-13 12:49:20.230 ,1,0,0.,24.0,0.,24.0,0.,24.0,0.,24.0
1979-07-13 12:49:44.230 ,2,1,0.,24.0,0.,24.0,0.,24.0,0.,24.0
1979-07-13 12:50:08.230 ,2,0,0.,24.0,0.,24.0,0.,24.0,0.,24.0
1979-07-13 12:50:32.230 ,3,1,0.,24.0,0.,24.0,0.,24.0,0.,24.0
1979-07-13 12:50:56.230 ,3,0,0.,24.0,0.,24.0,0.,24.0,0.,24.0
1979-07-13 12:51:20.230 ,4,1,0.,24.0,0.,24.0,0.,24.0,0.,24.0
1979-07-13 12:51:44.230 ,4,0,0.,24.0,0.,24.0,0.,24.0,0.,24.0
1979-07-13 12:52:08.230 ,5,1,0.,24.0,0.,24.0,0.,24.0,0.,24.0
1979-07-13 12:52:32.230 ,5,0,0.,24.0,0.,24.0,0.,24.0,0.,24.0
1979-07-13 12:52:56.230 ,6,1,0.,24.0,0.,24.0,0.,24.0,0.,24.0
1979-07-13 12:53:20.230 ,6,0,0.,24.0,0.,24.0,0.,24.0,0.,24.0
1979-07-13 12:53:44.230 ,7,1,0.,24.0,0.,24.0,0.,24.0,0.,24.0
1979-07-13 12:54:08.230 ,7,0,0.,24.0,0.,24.0,0.,24.0,0.,24.0
1979-07-13 12:54:32.230 ,7,1,0.,24.0,0.,24.0,0.,24.0,0.,24.0
1979-07-13 12:54:56.230 ,7,0,0.,24.0,0.,24.0,0.,24.0,0.,24.0
1979-07-13 12:55:20.230 ,6,1,0.,24.0,0.,24.0,0.,24.0,0.,24.0
1979-07-13 12:55:44.230 ,6,0,0.,24.0,0.,24.0,0.,24.0,0.,24.0
1979-07-13 12:56:08.230 ,5,1,0.,24.0,0.,24.0,0.,24.0,0.,24.0
1979-07-13 12:56:32.230 ,5,0,0.,24.0,0.,24.0,0.,24.0,0.,24.0
1979-07-13 12:56:56.230 ,4,1,0.,24.0,0.,24.0,0.,24.0,0.,24.0
1979-07-13 12:57:20.230 ,4,0,0.,24.0,0.,24.0,0.,24.0,0.,24.0
1979-07-13 12:57:44.230 ,3,1,0.,24.0,0.,24.0,0.,24.0,0.,24.0
1979-07-13 12:58:08.230 ,3,0,0.,24.0,0.,24.0,0.,24.0,0.,24.0
1979-07-13 12:58:32.230 ,2,1,0.,24.0,0.,24.0,0.,24.0,0.,24.0
1979-07-13 12:58:56.230 ,2,0,0.,24.0,0.,24.0,0.,24.0,0.,24.0
1979-07-13 12:59:20.230 ,1,1,0.,24.0,0.,24.0,0.,24.0,0.,24.0
1979-07-13 12:59:44.230 ,1,0,0.,24.0,0.,24.0,0.,24.0,0.,24.0
1979-07-13 13:00:08.230 ,0,1,0.,24.0,0.,24.0,0.,24.0,0.,24.0
1979-07-13 13:00:32.230 ,0,0,0.,24.0,0.,24.0,0.,24.0,0.,24.0
1979-07-13 13:00:56.230 ,0,1,0.,24.0,0.,24.0,0.,24.0,0.,24.0
1979-07-13 13:01:20.230 ,0,0,0.,24.0,0.,24.0,0.,24.0,0.,24.0
1979-07-13 13:01:44.230 ,1,1,0.,24.0,0.,24.0,0.,24.0,0.,24.0
1979-07-13 13:02:08.230 ,0,0,0.,24.0,0.,24.0,0.,24.0,0.,24.0
1979-07-13 13:02:52.030 ,0,0,,0,,0,,0,,0
1979-07-13 13:02:56.230 ,0,0,0.,24.0,0.,24.0,0.,24.0,0.,24.0
1979-07-13 13:03:20.230 ,3,1,0.,24.0,0.,24.0,0.,24.0,0.,24.0
1979-07-13 13:03:44.230 ,3,0,0.,24.0,0.,24.0,0.,24.0,0.,24.0
1979-07-13 13:04:08.230 ,4,1,0.,24.0,0.,24.0,0.,24.0,0.,24.0
1979-07-13 13:04:32.230 ,4,0,0.,24.0,0.,24.0,0.,24.0,0.,24.0
1979-07-13 13:04:56.230 ,5,1,0.,24.0,0.,24.0,0.,24.0,0.,24.0
1979-07-13 13:05:20.230 ,5,0,0.,24.0,0.,24.0,0.,24.0,0.,24.0
1979-07-13 13:05:44.230 ,6,1,0.,24.0,0.,24.0,0.,24.0,0.,24.0
1979-07-13 13:06:08.230 ,6,0,0.,24.0,0.,24.0,0.,24.0,0.,24.0
1979-07-13 13:06:32.230 ,7,0,0.,24.0,0.,24.0,0.,24.0,0.,24.0
1979-07-13 13:06:56.230 ,7,0,0.,24.0,0.,24.0,0.,24.0,0.,24.0
1979-07-13 13:07:20.230 ,5,1,0.,24.0,0.,24.0,0.,24.0,0.,24.0
1979-07-13 13:07:44.230 ,1,1,0.,24.0,0.,24.0,0.,24.0,0.,24.0
1979-07-13 13:08:08.230 ,2,1,0.,24.0,0.,24.0,0.,24.0,0.,24.0
1979-07-13 13:08:32.230 ,6,1,0.,24.0,0.,24.0,0.,24.0,0.,24.0
1979-07-13 13:08:56.230 ,5,1,0.,24.0,0.,24.0,0.,24.0,0.,24.0
1979-07-13 13:09:20.230 ,1,1,0.,24.0,0.,24.0,0.,24.0,0.,24.0
1979-07-13 13:09:44.230 ,2,1,0.,24.0,0.,24.0,0.,24.0,0.,24.0
1979-07-13 13:10:08.230 ,6,1,0.,24.0,0.,24.0,0.,24.0,0.,24.0
1979-07-13 13:10:32.230 ,5,1,0.,24.0,0.,24.0,0.,24.0,0.,24.0
1979-07-13 13:10:56.230 ,1,1,0.,24.0,0.,24.0,0.,24.0,0.,24.0
1979-07-13 13:11:20.230 ,2,1,0.,24.0,0.,24.0,0.,24.0,0.,24.0
1979-07-13 13:11:44.230 ,6,1,0.,24.0,0.,24.0,0.,24.0,0.,24.0
1979-07-13 13:12:08.230 ,5,1,0.,24.0,0.,24.0,0.,24.0,0.,24.0
1979-07-13 13:12:32.230 ,1,1,0.,24.0,0.,24.0,0.,24.0,0.,24.0
1979-07-13 13:12:56.230 ,2,1,0.,24.0,0.,24.0,0.,24.0,0.,24.0
1979-07-13 13:13:20.230 ,6,1,0.,24.0,0.,24.0,0.,24.0,0.,24.0
1979-07-13 13:13:44.230 ,5,1,0.,24.0,0.,24.0,0.,24.0,0.,24.0
1979-07-13 13:14:08.230 ,1,1,0.,24.0,0.,24.0,0.,24.0,0.,24.0
1979-07-13 13:14:32.230 ,2,1,0.,24.0,0.,24.0,0.,24.0,0.,24.0
1979-07-13 13:14:56.230 ,6,1,0.,24.0,0.,24.0,0.,24.0,0.,24.0
1979-07-13 13:15:20.230 ,5,1,0.,24.0,0.,24.0,0.,24.0,0.,24.0
1979-07-13 13:15:44.230 ,1,1,0.,24.0,0.,24.0,0.,24.0,0.,24.0
1979-07-13 13:16:08.230 ,2,1,0.,24.0,0.,24.0,0.,24.0,0.,24.0
1979-07-13 13:16:32.230 ,6,1,0.,24.0,0.,24.0,0.,24.0,0.,24.0
1979-07-13 13:16:56.230 ,5,1,0.,24.0,0.,24.0,0.,24.0,0.,24.0
1979-07-13 13:17:20.230 ,1,1,0.,24.0,0.,24.0,0.,24.0,0.,24.0
1979-07-13 13:17:44.230 ,0,0,0.,24.0,0.,24.0,0.,24.0,0.,24.0
1979-07-13 13:18:08.230 ,0,0,0.,24.0,0.,24.0,0.,24.0,0.,24.0
1979-07-13 13:18:32.230 ,5,1,0.,24.0,0.,24.0,0.,24.0,0.,24.0
1979-07-13 13:18:56.230 ,5,0,0.,24.0,0.,24.0,0.,24.0,0.,24.0
1979-07-13 13:19:20.230 ,4,1,0.,24.0,0.,24.0,0.,24.0,0.,24.0
1979-07-13 13:19:44.230 ,4,0,0.,24.0,0.,24.0,0.,24.0,0.,24.0
1979-07-13 13:20:08.230 ,3,1,0.,24.0,0.,24.0,0.,24.0,0.,24.0
1979-07-13 13:20:32.230 ,3,0,0.,24.0,0.,24.0,0.,24.0,0.,24.0
1979-07-13 13:20:56.230 ,2,1,0.,24.0,0.,24.0,0.,24.0,0.,24.0
1979-07-13 13:21:20.230 ,2,0,0.,24.0,0.,24.0,0.,24.0,0.,24.0
1979-07-13 13:21:44.230 ,1,1,0.,24.0,0.,24.0,0.,24.0,0.,24.0
1979-07-13 13:22:08.230 ,1,0,0.,24.0,0.,24.0,0.,24.0,0.,24.0
1979-07-13 13:22:32.230 ,0,1,0.,24.0,0.,24.0,0.,24.0,0.,24.0
1979-07-13 13:22:56.230 ,0,0,0.,24.0,0.,24.0,0.,24.0,0.,24.0
1979-07-13 13:23:20.230 ,0,1,0.,24.0,0.,24.0,0.,24.0,0.,24.0
1979-07-13 13:23:44.230 ,0,0,0.,24.0,0.,24.0,0.,24.0,0.,24.0
1979-07-13 13:24:08.230 ,1,1,0.,24.0,0.,24.0,0.,24.0,0.,24.0
1979-07-13 13:24:32.230 ,1,0,0.,24.0,0.,24.0,0.,24.0,0.,24.0
1979-07-13 13:24:56.230 ,2,1,0.,24.0,0.,24.0,0.,24.0,0.,24.0
1979-07-13 13:25:20.230 ,2,0,0.,24.0,0.,24.0,0.,24.0,0.,24.0
1979-07-13 13:25:44.230 ,3,1,0.,24.0,0.,24.0,0.,24.0,0.,24.0
1979-07-13 13:26:08.230 ,3,0,0.,24.0,0.,24.0,0.,24.0,0.,24.0
1979-07-13 13:26:32.230 ,4,1,0.,24.0,0.,24.0,0.,24.0,0.,24.0
1979-07-13 13:26:56.230 ,4,0,0.,24.0,0.,24.0,0.,24.0,0.,24.0
1979-07-13 13:27:20.230 ,5,1,0.,24.0,0.,24.0,0.,24.0,0.,24.0
1979-07-13 13:27:44.230 ,5,0,0.,24.0,0.,24.0,0.,24.0,0.,24.0
1979-07-13 13:28:08.230 ,6,1,0.,24.0,0.,24.0,0.,24.0,0.,24.0
1979-07-13 13:28:32.230 ,6,0,0.,24.0,0.,24.0,0.,24.0,0.,24.0
1979-07-13 13:28:56.230 ,7,1,0.,24.0,0.,24.0,0.,24.0,0.,24.0
1979-07-13 13:29:20.230 ,7,0,0.,24.0,0.,24.0,0.,24.0,0.,24.0
1979-07-13 13:29:44.230 ,7,1,0.,24.0,0.,24.0,0.,24.0,0.,24.0
1979-07-13 13:30:08.230 ,7,0,0.,24.0,0.,24.0,0.,24.0,0.,24.0
1979-07-13 13:30:32.230 ,6,1,0.,24.0,0.,24.0,0.,24.0,0.,24.0
1979-07-13 13:30:56.230 ,6,0,0.,24.0,0.,24.0,0.,24.0,0.,24.0
1979-07-13 13:31:20.230 ,5,1,0.,24.0,0.,24.0,0.,24.0,0.,24.0
1979-07-13 13:31:44.230 ,5,0,0.,24.0,0.,24.0,0.,24.0,0.,24.0
1979-07-13 13:32:08.230 ,4,1,0.,24.0,0.,24.0,0.,24.0,0.,24.0
1979-07-13 13:32:32.230 ,4,0,0.,24.0,0.,24.0,0.,24.0,0.,24.0
1979-07-13 13:32:56.230 ,3,1,0.,24.0,0.,24.0,0.,24.0,0.,24.0
1979-07-13 13:33:20.230 ,3,0,0.,24.0,0.,24.0,0.,24.0,0.,24.0
1979-07-13 13:33:44.230 ,2,1,0.,24.0,0.,24.0,0.,24.0,0.,24.0
1979-07-13 13:34:08.230 ,2,0,0.,24.0,0.,24.0,0.,24.0,0.,24.0
1979-07-13 13:34:32.230 ,1,1,0.,24.0,0.,24.0,0.,24.0,0.,24.0
1979-07-13 13:34:56.230 ,1,0,0.,24.0,0.,24.0,0.,24.0,0.,24.0
1979-07-13 13:35:20.230 ,0,1,0.,24.0,0.,24.0,0.,24.0,0.,24.0
1979-07-13 13:35:44.230 ,0,0,0.,24.0,0.,24.0,0.,24.0,0.,24.0
1979-07-13 13:36:08.230 ,0,1,0.,24.0,0.,24.0,0.,24.0,0.,24.0
1979-07-13 13:36:32.230 ,0,0,0.,24.0,0.,24.0,0.,24.0,0.,24.0
1979-07-13 13:36:56.230 ,1,1,0.,24.0,0.,24.0,0.,24.0,0.,24.0
1979-07-13 13:37:20.230 ,1,0,0.,24.0,0.,24.0,0.,24.0,0.,24.0
1979-07-13 13:37:44.230 ,2,1,0.,24.0,0.,24.0,0.,24.0,0.,24.0
1979-07-13 13:38:08.230 ,2,0,0.,24.0,0.,24.0,0.,24.0,0.,24.0
1979-07-13 13:38:32.230 ,3,1,0.,24.0,0.,24.0,0.,24.0,0.,24.0
1979-07-13 13:38:56.230 ,3,0,0.,24.0,0.,24.0,0.,24.0,0.,24.0
1979-07-13 13:39:20.230 ,4,1,0.,24.0,0.,24.0,0.,24.0,0.,24.0
1979-07-13 13:39:44.230 ,4,0,0.,24.0,0.,24.0,0.,24.0,0.,24.0
1979-07-13 13:40:08.230 ,5,1,0.,24.0,0.,24.0,0.,24.0,0.,24.0
1979-07-13 13:40:32.230 ,5,0,0.,24.0,0.,24.0,0.,24.0,0.,24.0
1979-07-13 13:40:56.230 ,6,1,0.,24.0,0.,24.0,0.,24.0,0.,24.0
1979-07-13 13:41:20.230 ,6,0,0.,24.0,0.,24.0,0.,24.0,0.,24.0
1979-07-13 13:41:44.230 ,7,1,0.,24.0,0.,24.0,0.,24.0,0.,24.0
1979-07-13 13:42:08.230 ,7,0,0.,24.0,0.,24.0,0.,24.0,0.,24.0
1979-07-13 13:42:32.230 ,7,1,0.,24.0,0.,24.0,0.,24.0,0.,24.0
1979-07-13 13:42:56.230 ,7,0,0.,24.0,0.,24.0,0.,24.0,0.,24.0
1979-07-13 13:43:20.230 ,6,1,0.,24.0,0.,24.0,0.,24.0,0.,24.0
1979-07-13 13:43:44.230 ,6,0,0.,24.0,0.,24.0,0.,24.0,0.,24.0
1979-07-13 13:44:08.230 ,5,1,0.,24.0,0.,24.0,0.,24.0,0.,24.0
1979-07-13 13:44:32.230 ,5,0,0.,24.0,0.,24.0,0.,24.0,0.,24.0
1979-07-13 13:44:56.230 ,4,1,0.,24.0,0.,24.0,0.,24.0,0.,24.0
1979-07-13 13:45:20.230 ,4,0,0.,24.0,0.,24.0,0.,24.0,0.,24.0
1979-07-13 13:45:44.230 ,3,1,0.,24.0,0.,24.0,0.,24.0,0.,24.0
1979-07-13 13:46:08.230 ,3,0,0.,24.0,0.,24.0,0.,24.0,0.,24.0
1979-07-13 13:46:32.230 ,2,1,0.,24.0,0.,24.0,0.,24.0,0.,24.0
1979-07-13 13:46:56.230 ,2,0,0.,24.0,0.,24.0,0.,24.0,0.,24.0
1979-07-13 13:47:20.230 ,1,1,0.,24.0,0.,24.0,0.,24.0,0.,24.0
1979-07-13 13:47:44.230 ,1,0,0.,24.0,0.,24.0,0.,24.0,0.,24.0
1979-07-13 13:48:08.230 ,0,1,0.,24.0,0.,24.0,0.,24.0,0.,24.0
1979-07-13 13:48:32.230 ,0,0,0.,24.0,0.,24.0,0.,24.0,0.,24.0
1979-07-13 13:48:56.230 ,0,1,0.,24.0,0.,24.0,0.,24.0,0.,24.0
1979-07-13 13:49:20.230 ,0,0,0.,24.0,0.,24.0,0.,24.0,0.,24.0
1979-07-13 13:49:44.230 ,1,1,0.,24.0,0.,24.0,0.,24.0,0.,24.0
1979-07-13 13:50:08.230 ,1,0,0.,24.0,0.,24.0,0.,24.0,0.,24.0
1979-07-13 13:50:32.230 ,2,1,0.,24.0,0.,24.0,0.,24.0,0.,24.0
1979-07-13 13:50:56.230 ,2,0,0.,24.0,0.,24.0,0.,24.0,0.,24.0
1979-07-13 13:51:20.230 ,3,1,0.,24.0,0.,24.0,0.,24.0,0.,24.0
1979-07-13 13:51:44.230 ,3,0,0.,24.0,0.,24.0,0.,24.0,0.,24.0
1979-07-13 13:52:08.230 ,4,1,0.,24.0,0.,24.0,0.,24.0,0.,24.0
1979-07-13 13:52:32.230 ,4,0,0.,24.0,0.,24.0,0.,24.0,0.,24.0
1979-07-13 13:52:56.230 ,5,1,0.,24.0,0.,24.0,0.,24.0,0.,24.0
1979-07-13 13:53:20.230 ,5,0,0.,24.0,0.,24.0,0.,24.0,0.,24.0
1979-07-13 13:53:44.230 ,6,1,0.,24.0,0.,24.0,0.,24.0,0.,24.0
1979-07-13 13:54:08.230 ,6,0,0.,24.0,0.,24.0,0.,24.0,0.,24.0
1979-07-13 13:54:32.230 ,7,0,0.,24.0,0.,24.0,0.,24.0,0.,24.0
1979-07-13 13:54:56.230 ,7,0,0.,24.0,0.,24.0,0.,24.0,0.,24.0
1979-07-13 13:55:20.230 ,5,1,0.,24.0,0.,24.0,0.,24.0,0.,24.0
1979-07-13 13:55:44.230 ,1,1,0.,24.0,0.,24.0,0.,24.0,0.,24.0
1979-07-13 13:56:08.230 ,2,1,0.,24.0,0.,24.0,0.,24.0,0.,24.0
1979-07-13 13:56:32.230 ,6,1,0.,24.0,0.,24.0,0.,24.0,0.,24.0
1979-07-13 13:56:56.230 ,5,1,0.,24.0,0.,24.0,0.,24.0,0.,24.0
1979-07-13 13:57:20.230 ,1,1,0.,24.0,0.,24.0,0.,24.0,0.,24.0
1979-07-13 13:57:44.230 ,2,1,0.,24.0,0.,24.0,0.,24.0,0.,24.0
1979-07-13 13:58:08.230 ,6,1,0.,24.0,0.,24.0,0.,24.0,0.,24.0
1979-07-13 13:58:32.230 ,5,1,0.,24.0,0.,24.0,0.,24.0,0.,24.0
1979-07-13 13:58:56.230 ,1,1,0.,24.0,0.,24.0,0.,24.0,0.,24.0
1979-07-13 13:59:20.230 ,2,1,0.,24.0,0.,24.0,0.,24.0,0.,24.0
1979-07-13 13:59:44.230 ,6,1,0.,24.0,0.,24.0,0.,24.0,0.,24.0
1979-07-13 14:00:08.230 ,5,1,0.,24.0,0.,24.0,0.,24.0,0.,24.0
1979-07-13 14:00:32.230 ,1,1,0.,24.0,0.,24.0,0.,24.0,0.,24.0
1979-07-13 14:00:56.230 ,2,1,0.,24.0,0.,24.0,0.,24.0,0.,24.0
1979-07-13 14:01:20.230 ,6,1,0.,24.0,0.,24.0,0.,24.0,0.,24.0
1979-07-13 14:01:44.230 ,5,1,0.,24.0,0.,24.0,0.,24.0,0.,24.0
1979-07-13 14:02:08.230 ,1,1,0.,24.0,0.,24.0,0.,24.0,0.,24.0
1979-07-13 14:02:32.230 ,2,1,0.,24.0,0.,24.0,0.,24.0,0.,24.0
1979-07-13 14:02:56.230 ,6,1,0.,24.0,0.,24.0,0.,24.0,0.,24.0
1979-07-13 14:03:20.230 ,5,1,0.,24.0,0.,24.0,0.,24.0,0.,24.0
1979-07-13 14:03:44.230 ,1,1,0.,24.0,0.,24.0,0.,24.0,0.,24.0
1979-07-13 14:04:08.230 ,2,1,0.,24.0,0.,24.0,0.,24.0,0.,24.0
1979-07-13 14:04:32.230 ,6,1,0.,24.0,0.,24.0,0.,24.0,0.,24.0
1979-07-13 14:04:56.230 ,5,1,0.,24.0,0.,24.0,0.,24.0,0.,24.0
1979-07-13 14:05:20.230 ,1,1,0.,24.0,0.,24.0,0.,24.0,0.,24.0
1979-07-13 14:05:44.230 ,0,0,0.,24.0,0.,24.0,0.,24.0,0.,24.0
1979-07-13 14:06:08.230 ,0,0,0.,24.0,0.,24.0,0.,24.0,0.,24.0
1979-07-13 14:06:32.230 ,5,1,0.,24.0,0.,24.0,0.,24.0,0.,24.0
1979-07-13 14:06:56.230 ,5,0,0.,24.0,0.,24.0,0.,24.0,0.,24.0
1979-07-13 14:07:20.230 ,4,1,0.,24.0,0.,24.0,0.,24.0,0.,24.0
1979-07-13 14:07:44.230 ,4,0,0.,24.0,0.,24.0,0.,24.0,0.,24.0
1979-07-13 14:08:08.230 ,3,1,0.,24.0,0.,24.0,0.,24.0,0.,24.0
1979-07-13 14:08:32.230 ,3,0,0.,24.0,0.,24.0,0.,24.0,0.,24.0
1979-07-13 14:08:56.230 ,2,1,0.,24.0,0.,24.0,0.,24.0,0.,24.0
1979-07-13 14:09:20.230 ,0,0,0.,24.0,0.,24.0,0.,24.0,0.,24.0
1979-07-13 14:09:44.830 ,1,1,0.,24.0,0.,24.0,0.,24.0,0.,24.0
1979-07-13 14:10:08.230 ,1,0,0.,24.0,0.,24.0,0.,24.0,0.,24.0
1979-07-13 14:10:32.230 ,0,1,0.,24.0,0.,24.0,0.,24.0,0.,24.0
1979-07-13 14:10:56.230 ,0,0,0.,24.0,0.,24.0,0.,24.0,0.,24.0
1979-07-13 14:11:20.230 ,0,1,0.,24.0,0.,24.0,0.,24.0,0.,24.0
1979-07-13 14:11:44.230 ,0,0,0.,24.0,0.,24.0,0.,24.0,0.,24.0
1979-07-13 14:12:08.230 ,1,1,0.,24.0,0.,24.0,0.,24.0,0.,24.0
1979-07-13 14:12:32.230 ,1,0,0.,24.0,0.,24.0,0.,24.0,0.,24.0
1979-07-13 14:12:56.230 ,2,1,0.,24.0,0.,24.0,0.,24.0,0.,24.0
1979-07-13 14:13:20.230 ,0,0,0.,24.0,0.,24.0,0.,24.0,0.,24.0
1979-07-13 14:13:45.430 ,3,1,0.,24.0,0.,24.0,0.,24.0,0.,24.0
1979-07-13 14:14:08.230 ,3,0,0.,24.0,0.,24.0,0.,24.0,0.,24.0
1979-07-13 14:14:32.230 ,4,1,0.,24.0,0.,24.0,0.,24.0,0.,24.0
1979-07-13 14:14:56.230 ,4,0,0.,24.0,0.,24.0,0.,24.0,0.,24.0
1979-07-13 14:15:20.230 ,5,1,0.,24.0,0.,24.0,0.,24.0,0.,24.0
1979-07-13 14:15:44.230 ,5,0,0.,24.0,0.,24.0,0.,24.0,0.,24.0
1979-07-13 14:16:08.230 ,6,1,0.,24.0,0.,24.0,0.,24.0,0.,24.0
1979-07-13 14:16:32.230 ,6,0,0.,24.0,0.,24.0,0.,24.0,0.,24.0
1979-07-13 14:16:56.230 ,7,1,0.,24.0,0.,24.0,0.,24.0,0.,24.0
1979-07-13 14:17:20.220 ,7,0,0.,24.0,0.,24.0,0.,24.0,0.,24.0
1979-07-13 14:17:44.220 ,7,1,0.,24.0,0.,24.0,0.,24.0,0.,24.0
1979-07-13 14:18:08.220 ,7,0,0.,24.0,0.,24.0,0.,24.0,0.,24.0
1979-07-13 14:18:32.220 ,6,1,0.,24.0,0.,24.0,0.,24.0,0.,24.0
1979-07-13 14:18:56.220 ,6,0,0.,24.0,0.,24.0,0.,24.0,0.,24.0
1979-07-13 14:19:20.220 ,5,1,0.,24.0,0.,24.0,0.,24.0,0.,24.0
1979-07-13 14:19:44.220 ,5,0,0.,24.0,0.,24.0,0.,24.0,0.,24.0
1979-07-13 14:20:08.220 ,4,1,0.,24.0,0.,24.0,0.,24.0,0.,24.0
1979-07-13 14:20:32.220 ,4,0,0.,24.0,0.,24.0,0.,24.0,0.,24.0
1979-07-13 14:20:56.220 ,3,1,0.,24.0,0.,24.0,0.,24.0,0.,24.0
1979-07-13 14:21:20.220 ,3,0,0.,24.0,0.,24.0,0.,24.0,0.,24.0
1979-07-13 14:21:44.220 ,2,1,0.,24.0,0.,24.0,0.,24.0,0.,24.0
1979-07-13 14:22:08.220 ,2,0,0.,24.0,0.,24.0,0.,24.0,0.,24.0
1979-07-13 14:22:32.220 ,1,1,0.,24.0,0.,24.0,0.,24.0,0.,24.0
1979-07-13 14:22:56.220 ,1,0,0.,24.0,0.,24.0,0.,24.0,0.,24.0
1979-07-13 14:23:20.220 ,0,1,0.,24.0,0.,24.0,0.,24.0,0.,24.0
1979-07-13 14:23:44.220 ,0,0,0.,24.0,0.,24.0,0.,24.0,0.,24.0
1979-07-13 14:24:08.220 ,0,1,0.,24.0,0.,24.0,0.,24.0,0.,24.0
1979-07-13 14:24:32.220 ,0,0,0.,24.0,0.,24.0,0.,24.0,0.,24.0
1979-07-13 14:24:56.220 ,1,1,0.,24.0,0.,24.0,0.,24.0,0.,24.0
1979-07-13 14:25:20.220 ,1,0,0.,24.0,0.,24.0,0.,24.0,0.,24.0
1979-07-13 14:25:44.220 ,2,1,0.,24.0,0.,24.0,0.,24.0,0.,24.0
1979-07-13 14:26:08.220 ,2,0,0.,24.0,0.,24.0,0.,24.0,0.,24.0
1979-07-13 14:26:32.220 ,3,1,0.,24.0,0.,24.0,0.,24.0,0.,24.0
1979-07-13 14:26:56.220 ,3,0,0.,24.0,0.,24.0,0.,24.0,0.,24.0
1979-07-13 14:27:20.220 ,4,1,0.,24.0,0.,24.0,0.,24.0,0.,24.0
1979-07-13 14:27:44.220 ,4,0,0.,24.0,0.,24.0,0.,24.0,0.,24.0
1979-07-13 14:28:08.220 ,5,1,0.,24.0,0.,24.0,0.,24.0,0.,24.0
1979-07-13 14:28:32.220 ,5,0,0.,24.0,0.,24.0,0.,24.0,0.,24.0
1979-07-13 14:28:56.220 ,6,1,0.,24.0,0.,24.0,0.,24.0,0.,24.0
1979-07-13 14:29:20.220 ,6,0,0.,24.0,0.,24.0,0.,24.0,0.,24.0
1979-07-13 14:29:44.220 ,7,1,0.,24.0,0.,24.0,0.,24.0,0.,24.0
1979-07-13 14:30:08.220 ,7,0,0.,24.0,0.,24.0,0.,24.0,0.,24.0
1979-07-13 14:30:32.220 ,7,1,0.,24.0,0.,24.0,0.,24.0,0.,24.0
1979-07-13 14:30:56.220 ,7,0,0.,24.0,0.,24.0,0.,24.0,0.,24.0
1979-07-13 14:31:20.220 ,6,1,0.,24.0,0.,24.0,0.,24.0,0.,24.0
1979-07-13 14:31:44.220 ,6,0,0.,24.0,0.,24.0,0.,24.0,0.,24.0
1979-07-13 14:32:08.220 ,5,1,0.,24.0,0.,24.0,0.,24.0,0.,24.0
1979-07-13 14:32:32.220 ,5,0,0.,24.0,0.,24.0,0.,24.0,0.,24.0
1979-07-13 14:32:56.220 ,4,1,0.,24.0,0.,24.0,0.,24.0,0.,24.0
1979-07-13 14:33:20.220 ,4,0,0.,24.0,0.,24.0,0.,24.0,0.,24.0
1979-07-13 14:33:44.220 ,3,1,0.,24.0,0.,24.0,0.,24.0,0.,24.0
1979-07-13 14:34:08.220 ,3,0,0.,24.0,0.,24.0,0.,24.0,0.,24.0
1979-07-13 14:34:32.220 ,2,1,0.,24.0,0.,24.0,0.,24.0,0.,24.0